Location: Mahannah Oil Field
(37.4664°N, 96.6003°W)
Time: 01:54:13
(UTC+00:00)

Tiros 1 despin weight - Pass Details

Date: 29 January 2021
Orbit: 593 x 642 km, 48.2° (Epoch: 25 February)

Event Time Altitude Azimuth Distance (km) Brightness Sun altitude
Rises 02:10:38 0° 292° (WNW) 2,844 ? -28.6°
Reaches altitude 10° 02:13:19 10° 278° (W) 1,932 ? -29.2°
Maximum altitude 02:16:44 22° 227° (SW) 1,299 ? -29.9°
Enters shadow 02:17:18 22° 215° (SW) 1,318 ? -30.0°
Drops below altitude 10° 02:20:09 10° 175° (S) 1,912 - -30.5°
Sets 02:22:48 0° 160° (SSE) 2,808 - -31.1°
